SL-8 DEB

Satellite information

Favourite Embed

Satellite Type and Status

DEBRISIN ORBIT

Key statistics

Satellite SL-8 DEB at a glance.

Uptime

17434

Days in orbit

Revolutions

≈ 14.8

Per day

Orbit

LEO

Low Earth Orbit

Inclination

74.0

Latest

Satellite identification and parameters

Extended collection of information and parameters for SL-8 DEB.

Object identification

Identified? True

Debris? True

Object name: SL-8 DEB

International designator: 1977-119C

Object number (NORAD): 10524

Object ID (CCSDS): 10524

Country: COMMONWEALTH OF INDEPENDENT STATES (CIS)

Current information (Y/N): Y

RCS size: SMALL

Orbital parameters

Period: 97.109 minutes

Inclination: 74.0215 deg

SMA: 6998.44 km

Apoapsis: 626.78 km

Periapsis: 613.83 km

RAAN: 243.6929 deg

Eccentricy: 0.0009252

Argument of periapsis: 295.789 deg

Mean anomaly: 64.2332 deg

Mean motion: 14.82862506 rev/day

Mean motion (dot): 0.00006218 rev/day2

B* drag term: 0.00077058706 1/REarth

Two-line elements (TLE)

Creation date: Sept. 8, 2025, 6:18 p.m.

Reference frame: TEME

Reference center: EARTH

Epoch: Sept. 8, 2025, 9:37 a.m. UTC

TLE line 0: 0 SL-8 DEB

TLE line 1: 1 10524U 77119C 25251.40118533 .00006218 00000-0 77059-3 0 9995

TLE line 2: 2 10524 74.0215 243.6929 0009252 295.7890 64.2332 14.82862506524537

Live tracking on map

Real-time ground track for satellite SL-8 DEB.

In-orbit conjunctions

A list of the most updated potential collisions computed for object SL-8 DEB.

Target Orbit TCA Probability of collision Miss distance Type
CZ-6A DEB SSO 2024-11-14 23:12:54 0.000321139 300.0 (m) DEBRIS
FENGYUN 1C DEB SSO 2024-11-12 10:22:42 0.0001633062 485.0 (m) DEBRIS

Associated space launch

Military communications satellite

SL-8 DEB was lifted into orbit during the mission ‘Kosmos-3M | Strela-2M 16’, on board a Kosmos-3M space rocket.

The launch took place on Dec. 16, 1977, 4:25 a.m. from 132/1 (132L).

For more information about the launch, click the button.

Launch to space Kosmos-3M | Strela-2M 16
Kosmos-3M | Strela-2M 16

Agency: N/A

Status: Launch Successful

Launch date: Dec. 16, 1977, 4:25 a.m. UTC

Rocket: Kosmos-3M

Launch pad: 132/1 (132L)

Location: Plesetsk Cosmodrome, Russian Federation

...

Latest news about this satellite

There are no fresh news available about this satellite. Check back as we update our databases every day.


Newsletter sign-up

Weekly statistics, charts and insights to help you stay on top of the space industry.